IU2QRC-3 Weather Reports


time (UTC)temp
F
wind
direction
speed
knots
gust
knots
rain 1hr
in
rain 24hr
in
rain mn
in
humidity
%
barometer
mb
20260506032719 57 0.0 0.0 0.00 0.00 0.00 59 1007.8
20260506030719 57 0.0 0.0 0.00 0.00 0.00 59 1008.1
20260506024719 54 0.0 0.0 0.00 0.00 0.00 64 1008.8
20260506022718 57 0.0 0.0 0.00 0.00 0.00 59 1008.7
20260506020718 57 0.0 0.0 0.00 0.00 0.00 60 1008.8
20260506014717 57 0.0 0.0 0.00 0.00 0.00 58 1009.0
20260506012717 58 0.0 0.0 0.00 0.00 0.00 57 1009.0
20260506010717 59 0.0 0.0 0.00 0.00 0.00 57 1009.1
20260506004716 58 0.0 0.0 0.00 0.00 0.00 58 1009.2
20260506002716 58 0.0 0.0 0.00 0.00 0.00 58 1009.5
20260506000716 59 0.0 0.0 0.00 0.00 0.00 57 1009.6
20260505234715 58 0.0 0.0 0.00 0.00 0.00 57 1009.7
20260505232715 58 0.0 0.0 0.00 0.00 0.00 58 1009.8
20260505230715 58 0.0 0.0 0.00 0.00 0.00 58 1009.8
20260505224714 58 0.0 0.0 0.00 0.00 0.00 58 1010.1
20260505222714 58 0.0 0.0 0.00 0.00 0.00 56 1010.2
20260505220714 59 0.0 0.0 0.00 0.00 0.00 55 1010.2
20260505214713 68 0.0 0.0 0.00 0.00 0.00 42 1009.7
20260505214232 72 0.0 0.0 0.00 0.00 0.00 35 1009.5
20260505213845 72 0.0 0.0 0.00 0.00 0.00 36 1009.6
20260505212321 69 0.0 0.0 0.00 0.00 0.00 39 1010.0
20260505211519 69 0.0 0.0 0.00 0.00 0.00 39 1010.0
20260505205519 71 0.0 0.0 0.00 0.00 0.00 39 1010.1
20260505203518 71 0.0 0.0 0.00 0.00 0.00 39 1010.1
20260505201518 71 0.0 0.0 0.00 0.00 0.00 38 1010.1
20260505195518 71 0.0 0.0 0.00 0.00 0.00 38 1010.0
20260505193517 71 0.0 0.0 0.00 0.00 0.00 37 1010.0
20260505191517 68 0.0 0.0 0.00 0.00 0.00 41 1010.1
20260505185959 73 0.0 0.0 0.00 0.00 0.00 35 1009.6
20260505183959 73 0.0 0.0 0.00 0.00 0.00 35 1009.7
20260505181959 73 0.0 0.0 0.00 0.00 0.00 36 1009.6
20260505175959 73 0.0 0.0 0.00 0.00 0.00 36 1009.6
20260505173958 73 0.0 0.0 0.00 0.00 0.00 36 1009.5
20260505171958 73 0.0 0.0 0.00 0.00 0.00 36 1009.4
20260505165958 72 0.0 0.0 0.00 0.00 0.00 37 1009.5
20260505163957 62 0.0 0.0 0.00 0.00 0.00 51 1010.3
20260505162314 56 0.0 0.0 0.00 0.00 0.00 65 1010.8
20260505160314 66 0.0 0.0 0.00 0.00 0.00 45 1010.1
20260505153326 83 0.0 0.0 0.00 0.00 0.00 31 1009.0
20260505152858 69 0.0 0.0 0.00 0.00 0.00 43 1010.1
20260505152139 68 0.0 0.0 0.00 0.00 0.00 45 1010.3
20260505150943 65 0.0 0.0 0.00 0.00 0.00 49 1010.5
20260505120156 59 0.0 0.0 0.00 0.00 0.00 56 1011.4
20260505114156 58 0.0 0.0 0.00 0.00 0.00 58 1011.4
20260505112156 59 0.0 0.0 0.00 0.00 0.00 55 1011.2
20260505110155 60 0.0 0.0 0.00 0.00 0.00 55 1011.2
20260505102154 59 0.0 0.0 0.00 0.00 0.00 56 1011.3
20260505100154 58 0.0 0.0 0.00 0.00 0.00 58 1011.2
20260505094153 60 0.0 0.0 0.00 0.00 0.00 55 1011.0
20260505092153 67 0.0 0.0 0.00 0.00 0.00 42 1010.4
20260505081714 63 0.0 0.0 0.00 0.00 0.00 47 1010.8